Dewpoint
62 62 62 63 63 63 63 63 63 64 64 64 64 64 64 64 64 64 63 64 63 63 63 63 63 62 62 61 60 60 60 56 56 54 55 58 57 57 58 58 59 58 57 50 45 38 34 38 33 29 28 33 36 34 42 37 42 39 31 32 27 30 23 28 22 26 26 24 24 24 24 24 24 25 25 24 22 26 38 46 50 57 58 58 58 59 59 60
62 62 62 63 63 63 63 63 63 64 64 64 64 64 64 64 64 64 63 63 63 63 63 63 62 62 62 61 61 60 56 56 53 52 53 57 59 59 59 59 59 58 56 45 41 36 33 36 34 31 29 28 46 34 37 38 40 35 31 30 27 27 21 21 20 25 23 23 24 24 23 24 24 23 24 21 21 25 32 38 50 55 58 59 59 59 60 60
61 61 62 62 63 63 63 62 63 63 63 64 64 64 64 64 63 63 63 63 63 63 63 63 62 62 61 61 60 59 55 54 52 50 53 59 59 59 59 60 60 58 55 53 48 41 41 37 34 30 29 24 32 30 36 34 34 35 28 25 29 30 21 20 21 21 24 25 23 22 23 22 23 23 25 21 20 22 28 37 44 55 57 58 59 59 60 59
61 61 61 62 63 63 63 63 63 62 63 63 64 64 63 63 63 63 63 63 63 63 63 62 62 61 60 60 59 57 55 53 50 53 53 61 61 61 60 60 61 60 60 57 53 44 40 36 31 29 30 25 26 34 32 33 25 28 28 28 30 22 22 19 21 21 24 25 23 22 23 22 23 23 22 22 18 19 19 36 38 50 57 58 59 59 60 59
61 61 61 62 62 62 63 63 63 63 63 63 63 63 63 63 63 63 63 63 63 63 62 62 62 60 59 59 58 56 51 50 49 52 54 62 63 62 61 60 59 60 60 59 54 48 36 30 28 31 32 22 27 28 27 31 28 32 24 30 23 23 21 21 22 25 21 23 22 22 20 20 22 21 20 18 17 17 17 20 34 49 58 58 58 59 59 59
60 61 61 62 62 62 62 63 63 63 62 63 63 62 62 63 63 63 63 63 63 62 62 62 61 59 58 58 56 55 49 42 49 50 61 63 64 64 62 61 60 61 58 55 53 51 39 29 27 28 24 19 21 21 25 26 29 23 25 22 23 22 20 22 23 23 20 21 22 22 22 20 20 21 21 16 17 18 20 22 24 48 58 59 59 59 59 59
60 61 61 61 62 62 62 62 63 63 63 62 62 62 62 63 63 63 63 63 63 62 62 61 60 59 58 57 55 53 48 53 42 53 61 64 65 64 62 61 62 57 55 53 53 51 42 29 29 25 28 21 18 22 24 24 27 25 23 22 22 22 20 24 22 25 21 21 20 20 20 19 17 17 19 18 20 20 22 37 34 47 58 59 58 59 59 59
60 60 60 60 61 61 62 62 62 63 62 62 63 62 62 63 62 62 62 62 62 62 62 60 59 58 57 54 52 51 49 47 49 58 61 63 62 61 59 57 56 53 50 48 49 45 45 30 29 25 23 21 19 22 25 23 24 23 22 22 22 22 23 23 21 21 20 21 21 20 19 18 17 16 20 19 21 23 28 45 46 50 57 58 58 58 58 59
60 60 60 60 61 60 61 62 62 62 62 62 63 62 62 62 62 62 62 62 62 62 61 60 58 58 57 53 50 48 48 50 53 61 59 58 56 54 53 53 51 47 48 48 49 49 45 34 27 25 22 21 20 19 21 21 20 22 21 23 23 22 22 21 21 21 20 21 21 19 19 21 21 23 19 19 20 25 35 48 49 52 56 57 57 57 58 58
59 59 60 60 60 60 61 60 62 62 62 62 62 62 62 62 62 62 62 62 62 61 60 59 58 57 55 52 50 46 51 58 64 62 55 55 54 50 50 53 48 46 42 46 47 46 45 39 26 27 25 21 20 17 21 20 19 21 22 22 20 22 21 22 21 21 22 23 21 18 19 20 20 19 14 18 20 28 36 45 50 51 53 55 56 57 58 58
59 59 60 60 60 60 61 61 60 61 61 61 62 62 62 62 62 62 62 62 61 60 59 57 57 56 54 51 48 46 52 59 62 59 55 56 53 48 51 51 48 44 40 46 44 46 45 37 30 27 26 20 18 15 20 21 21 20 20 20 20 21 23 22 21 21 20 20 22 19 20 23 23 21 14 18 24 31 33 36 42 49 51 53 55 56 57 58
59 60 60 60 60 60 61 61 60 60 61 61 62 62 62 61 61 61 61 61 60 59 58 57 58 53 53 50 48 47 49 55 60 57 56 55 52 50 51 50 46 43 40 42 43 45 42 37 31 26 22 23 19 16 19 19 20 20 20 19 21 22 20 21 20 21 22 20 21 20 18 19 23 17 17 20 24 26 31 33 33 36 42 48 52 55 56 57
59 59 60 60 59 60 60 61 61 60 60 61 61 61 61 61 61 61 61 61 60 58 57 58 58 56 48 47 47 47 48 51 57 55 55 52 47 48 49 49 47 43 40 40 40 44 41 38 33 28 26 22 19 16 18 20 19 20 19 19 19 19 18 19 22 22 21 20 22 19 14 16 17 19 18 21 22 21 26 31 32 31 30 35 44 49 53 55
58 59 59 59 59 59 60 61 60 61 61 61 61 61 61 61 61 61 61 60 59 57 57 59 56 55 47 45 43 49 49 50 55 54 54 48 44 46 47 48 47 44 46 41 43 49 41 38 34 28 32 20 17 26 14 17 21 18 19 19 20 16 16 18 20 20 19 22 23 18 17 17 15 15 18 23 21 19 20 26 30 29 27 29 36 43 47 50
58 58 59 59 59 59 59 60 61 60 60 61 60 60 60 60 60 61 60 60 59 58 60 58 54 48 44 47 53 55 59 54 53 52 51 43 42 41 41 43 43 40 39 40 45 43 42 37 33 25 21 25 28 17 14 16 18 17 14 16 22 15 21 19 23 19 16 19 21 15 20 14 12 17 21 22 22 19 19 20 27 28 27 26 32 40 44 46
58 58 58 59 59 59 59 59 60 60 60 60 60 59 59 60 60 60 59 58 59 58 58 52 51 51 44 40 50 58 51 46 49 49 48 44 42 40 41 40 41 39 36 36 34 33 31 32 25 21 19 20 19 16 16 17 19 19 17 24 19 18 21 19 20 20 26 19 20 14 14 14 10 17 20 21 19 19 19 19 24 27 27 26 36 40 43 45
58 58 58 59 59 59 59 59 59 60 59 59 59 59 59 59 59 59 58 58 57 56 54 51 52 51 42 50 47 42 39 42 47 48 45 43 42 40 38 37 36 36 37 32 32 35 31 27 33 28 32 19 16 21 14 17 17 18 22 20 26 16 19 17 20 21 26 16 14 17 14 13 11 17 19 21 20 18 17 17 16 22 26 27 35 40 42 44
58 58 58 58 59 59 59 59 59 59 59 58 58 58 58 59 59 58 55 53 52 52 50 49 51 48 47 41 39 39 44 43 45 44 44 44 44 38 36 34 37 34 33 28 37 26 28 23 26 24 23 19 14 18 15 14 18 19 16 15 17 17 17 17 17 17 17 17 14 16 17 15 15 15 17 19 20 18 17 17 16 15 24 28 31 37 39 40
58 58 58 58 58 58 58 58 59 58 58 59 59 59 59 57 55 53 50 47 44 44 43 44 44 42 40 42 38 42 43 46 44 42 40 40 44 38 38 34 34 30 30 27 25 26 27 30 33 23 20 18 14 12 15 23 20 21 20 16 22 14 17 16 18 23 18 17 15 15 14 14 15 14 16 18 20 17 17 17 16 14 20 25 29 33 35 37
58 58 58 58 58 58 58 58 58 58 59 57 56 55 53 49 49 47 49 44 42 41 36 41 43 36 37 41 38 44 45 43 38 42 42 44 37 35 32 30 34 30 26 27 28 24 31 22 20 19 19 18 16 15 16 17 16 19 24 20 19 14 22 20 22 21 22 18 17 16 15 14 14 14 14 16 19 20 17 15 15 14 16 19 25 28 30 33
58 58 58 58 58 57 58 58 58 58 57 55 53 50 46 45 42 40 44 43 42 43 45 40 42 37 43 41 42 41 39 38 39 40 40 45 36 32 30 27 26 24 25 26 23 26 20 21 22 21 19 18 16 13 12 12 12 13 19 20 15 26 16 21 20 21 22 18 17 17 17 17 15 14 14 14 19 18 18 16 15 16 17 19 21 23 26 26
58 58 58 58 57 58 58 58 58 57 56 53 50 46 46 45 45 46 43 40 41 39 42 41 44 43 42 46 45 42 43 41 37 38 43 40 34 29 30 25 23 21 23 24 21 21 20 19 20 21 19 17 15 13 11 11 13 21 15 18 18 20 24 21 21 21 21 18 14 21 14 15 14 14 14 15 18 18 18 17 16 17 19 20 22 23 24 28
58 58 58 58 57 58 58 57 57 56 54 50 48 45 46 46 46 45 41 40 38 41 38 40 39 39 40 47 43 42 34 32 32 37 37 41 34 31 28 23 20 20 20 19 18 20 19 20 19 22 19 16 14 12 11 15 24 19 20 19 14 21 18 18 17 21 20 12 18 21 17 18 18 19 18 17 17 18 20 18 19 20 19 20 20 22 23 27
58 57 57 57 58 58 58 57 57 55 51 49 47 46 46 45 44 41 39 35 36 34 36 39 40 41 38 38 44 35 29 30 32 35 40 37 30 35 27 23 19 19 16 17 18 20 22 20 19 22 18 15 14 15 12 13 11 24 28 26 21 23 20 16 15 21 21 20 24 14 14 9 10 9 11 13 17 16 17 20 20 23 25 24 27 27 26 24
57 57 57 57 57 57 57 57 54 53 50 49 46 47 45 44 41 37 32 29 29 30 41 40 41 38 38 43 42 33 28 37 39 36 39 35 30 27 25 23 18 17 16 17 20 22 21 21 25 19 23 16 23 14 18 21 13 18 27 27 23 23 21 24 22 17 18 14 25 17 5 17 21 11 8 8 10 13 14 16 18 20 23 24 23 25 28 31
57 57 57 57 57 57 57 53 52 52 50 47 45 47 46 43 44 46 29 27 26 29 35 33 40 39 44 44 40 36 30 31 39 39 38 39 40 26 25 23 18 17 15 17 20 27 18 26 26 21 24 25 25 22 25 18 17 15 14 31 25 22 24 24 24 21 9 6 20 20 5 15 17 16 15 11 10 9 12 17 15 19 23 28 26 30 32 33
56 56 57 57 57 57 53 49 52 50 48 47 47 49 48 46 46 43 29 26 24 30 27 37 40 40 42 40 37 29 20 27 40 40 36 41 32 38 22 22 21 22 17 24 22 19 24 22 26 30 26 25 24 16 27 17 17 14 27 33 27 25 24 24 23 25 22 24 24 24 14 5 10 7 13 16 13 11 12 15 20 21 25 29 30 31 33 34
57 57 56 57 57 55 51 51 50 48 47 47 48 50 50 47 43 36 30 23 23 30 26 29 33 44 42 36 39 20 25 34 31 33 39 39 33 26 22 20 19 22 18 23 18 32 23 26 28 27 28 24 20 24 28 24 20 22 32 33 25 21 25 29 25 23 22 19 19 21 23 9 14 15 18 14 13 12 13 15 18 20 22 23 27 29 30 32
56 56 56 56 56 54 54 51 49 47 47 48 50 49 46 44 41 32 24 21 28 26 35 26 38 37 37 39 34 33 33 29 24 32 38 36 37 25 21 23 24 27 30 20 19 28 31 29 28 27 26 21 31 30 35 27 20 30 34 35 34 33 32 29 23 22 19 10 13 19 21 7 13 20 17 15 11 13 12 11 14 18 20 21 25 32 38 40
56 56 56 56 55 53 52 51 50 50 49 50 48 44 43 40 34 28 19 18 28 22 27 32 32 31 32 30 28 32 29 31 33 33 31 29 31 31 25 27 24 27 32 31 32 34 31 33 33 34 24 30 30 29 35 33 29 35 32 28 26 26 23 22 24 22 16 10 18 23 24 12 8 17 12 12 17 11 10 10 18 25 26 31 34 37 39 40
56 56 55 55 51 51 49 48 48 50 50 48 45 43 40 36 30 23 18 23 29 28 30 29 28 32 28 26 25 29 31 31 31 30 28 27 25 25 24 25 30 28 28 30 30 33 31 30 30 32 35 31 32 30 33 36 35 31 27 23 19 19 22 23 21 22 10 10 18 21 22 17 8 13 18 15 13 13 10 8 15 26 29 34 37 38 38 40
56 56 55 53 53 52 48 46 48 50 49 47 43 39 34 29 26 21 17 25 22 24 26 26 30 29 26 26 26 29 29 30 30 28 26 25 26 22 22 21 24 23 21 23 25 30 27 30 33 32 37 29 31 26 26 33 33 29 21 13 15 13 20 7 13 10 9 9 14 16 20 19 17 12 11 12 9 5 12 13 18 26 30 34 35 36 38 39
55 55 55 53 52 51 51 50 51 49 48 46 42 36 29 26 21 21 21 22 20 25 24 28 28 27 26 25 25 30 32 28 29 27 28 28 25 25 28 26 27 23 18 23 27 25 26 31 31 33 30 31 30 20 22 24 26 23 15 15 13 10 5 1 7 10 9 16 19 14 17 14 17 14 18 16 14 13 11 22 27 28 30 34 36 37 38 38
55 55 53 53 52 52 50 51 50 49 46 44 37 30 26 22 20 32 22 21 25 26 24 26 28 27 25 22 26 30 27 31 28 26 26 26 24 23 23 27 24 25 26 26 18 24 20 18 22 29 22 33 32 26 23 24 25 24 24 16 18 18 9 1 7 5 10 15 14 17 9 14 9 10 19 16 15 21 20 27 28 30 34 35 36 37 38 39
55 54 53 53 52 52 51 51 50 46 44 39 32 27 23 20 21 20 20 23 24 23 24 28 27 25 23 25 29 30 31 27 28 26 26 24 22 22 21 21 27 28 28 20 24 21 20 24 29 36 33 33 30 35 36 28 26 26 28 25 16 17 21 13 16 14 11 7 7 9 11 17 10 16 20 20 19 23 26 28 31 32 35 36 37 39 39 40
53 52 53 51 51 51 50 51 48 45 41 34 27 24 22 21 19 24 22 25 22 23 25 26 27 23 22 27 29 28 32 28 28 26 25 25 24 22 25 25 23 25 22 18 23 16 17 16 32 35 35 30 32 34 32 30 17 21 24 19 22 27 21 15 12 17 12 8 9 15 13 15 17 10 10 16 17 19 19 23 28 30 33 34 36 37 38 40
50 51 48 50 50 51 50 49 47 43 38 30 25 23 24 21 28 25 29 22 22 24 25 22 23 20 22 25 26 27 29 29 28 24 22 26 23 24 23 24 26 25 21 21 21 28 15 25 30 30 28 31 32 33 35 30 30 24 20 23 30 31 26 19 9 9 4 6 12 12 9 9 7 12 17 15 14 14 17 19 21 27 32 33 34 37 39 40
49 49 49 48 50 51 50 48 45 41 36 28 24 28 26 22 29 26 26 24 24 25 22 21 22 23 21 24 24 25 29 25 27 24 23 23 22 26 24 23 25 23 22 26 17 22 27 21 27 29 32 31 37 34 28 31 32 26 24 33 18 14 10 19 16 3 0 -0 2 9 14 11 12 10 15 11 13 13 13 17 18 21 30 32 35 38 38 38
49 47 43 48 51 51 50 47 43 39 35 27 24 26 27 36 35 28 26 24 25 25 21 22 20 23 23 24 25 26 26 21 27 26 23 24 19 25 22 22 25 24 23 26 17 26 26 22 25 30 31 31 31 29 24 24 28 33 28 23 28 20 23 13 15 18 17 6 -0 10 8 9 18 13 16 11 13 14 12 15 16 17 28 32 37 39 39 39
46 43 41 50 51 50 49 46 41 39 34 25 24 26 31 27 32 33 26 25 25 22 22 22 22 19 23 25 26 26 27 25 26 26 24 25 23 26 22 23 24 25 23 26 26 31 17 28 21 26 31 30 22 25 24 23 23 20 21 19 20 22 24 22 21 15 12 6 4 2 1 16 17 19 13 9 11 14 14 15 19 19 24 32 38 39 39 39
47 42 43 50 50 50 47 42 37 35 31 27 25 26 30 27 35 35 27 28 28 33 23 23 21 19 23 27 25 28 26 27 27 26 25 25 20 21 26 22 27 24 24 26 29 26 21 20 23 26 25 23 26 33 33 29 24 20 19 20 20 19 14 9 14 21 17 6 7 2 6 17 22 22 12 9 9 13 17 17 18 19 21 32 38 39 39 38
42 37 41 50 49 47 42 37 35 34 30 27 24 29 31 38 33 33 31 30 29 30 33 25 24 24 25 26 26 28 26 26 27 26 26 24 23 24 27 25 23 25 23 21 24 30 28 28 27 24 26 25 31 35 34 34 34 28 22 22 25 20 21 15 7 17 14 14 18 15 3 12 20 26 22 20 19 20 22 20 17 21 24 33 38 39 38 38
41 40 49 50 49 45 40 34 33 32 29 30 34 33 35 32 32 34 31 31 29 34 29 25 23 23 27 26 28 27 26 26 27 25 26 27 25 22 30 25 25 27 25 25 31 28 35 28 27 26 27 29 31 33 35 35 32 27 26 30 24 19 20 16 18 22 18 14 7 7 5 13 23 27 25 25 25 25 23 24 20 26 30 36 38 38 38 38
44 43 45 49 48 46 36 30 29 30 29 32 34 32 36 32 33 32 30 29 29 30 27 26 26 24 26 29 27 25 26 21 28 27 24 29 25 32 34 28 26 25 23 23 20 29 20 23 26 23 21 22 25 27 26 28 31 25 24 27 29 29 24 24 23 21 14 20 18 13 8 11 21 28 29 21 22 20 17 19 28 31 36 37 37 38 38 39
44 45 45 46 48 47 35 30 29 29 29 30 33 31 31 32 35 33 30 28 34 32 31 26 25 29 30 29 28 28 27 24 25 29 29 28 30 34 33 29 25 23 27 31 31 30 27 27 26 20 18 17 15 18 19 23 26 27 27 26 28 26 24 18 16 16 12 22 18 12 13 16 18 20 19 19 21 19 20 21 21 34 36 36 37 38 39 39
40 33 40 42 45 45 44 42 39 29 28 31 30 32 31 31 33 37 33 35 38 36 36 35 33 30 30 27 26 26 24 29 27 25 27 27 27 30 33 31 28 27 31 33 32 26 26 28 26 22 18 17 17 21 28 28 25 24 25 27 26 28 27 25 27 19 16 24 19 20 17 14 15 15 17 18 21 18 14 16 18 26 35 36 37 38 38 38
39 36 37 34 41 41 41 43 40 31 27 32 28 31 28 30 33 33 37 28 34 34 34 34 32 28 28 26 25 25 24 27 29 28 28 28 33 31 32 32 32 34 36 32 30 28 28 22 24 24 23 20 25 25 28 27 25 25 26 26 28 26 28 25 21 18 22 18 16 24 24 19 14 15 17 17 17 19 21 18 17 19 35 36 37 38 38 37
34 36 38 38 35 34 36 37 40 33 29 30 29 31 29 30 30 29 33 36 35 37 31 31 29 28 29 26 26 24 24 27 27 25 30 29 28 28 28 30 30 33 31 27 33 27 25 22 25 24 23 24 25 26 28 27 26 26 26 26 26 27 27 25 24 23 23 19 14 17 21 20 16 16 17 16 16 14 17 18 18 20 34 36 37 37 37 37
36 36 37 38 33 34 36 37 39 35 29 29 30 30 30 29 28 31 32 35 33 33 32 28 29 30 30 30 27 25 24 26 24 27 27 27 25 26 23 25 28 31 30 27 27 31 21 22 26 24 22 24 26 27 29 25 25 27 27 27 26 28 27 26 25 25 24 21 20 18 19 20 18 17 18 18 19 18 17 21 26 29 34 36 36 36 37 37
33 35 34 35 33 34 37 38 37 33 28 31 28 30 30 28 28 34 35 32 30 30 34 29 30 31 32 30 29 26 26 25 27 28 30 27 23 25 25 26 26 26 28 26 26 27 19 22 28 22 19 22 26 28 30 27 26 23 26 27 27 28 28 27 25 25 26 24 23 22 22 22 21 21 23 24 23 24 22 19 18 20 29 35 36 36 36 36
35 35 35 35 32 33 35 36 36 33 30 29 28 29 30 29 29 32 34 37 29 30 31 27 31 32 32 31 29 29 30 30 31 31 30 28 25 28 25 24 28 27 27 26 24 25 24 20 24 23 19 18 24 25 28 27 27 26 26 27 27 27 26 27 26 26 24 23 23 23 23 21 20 25 24 24 27 22 20 19 19 20 29 35 35 35 36 36
38 39 36 36 31 35 34 35 35 32 29 29 29 30 29 29 30 34 31 35 40 37 33 32 33 31 31 31 29 30 33 33 32 34 30 29 28 30 36 30 27 27 29 27 27 27 24 25 23 21 19 19 23 25 23 24 23 23 25 26 27 26 26 26 27 28 26 25 23 23 20 21 22 24 21 21 24 23 20 20 20 22 29 34 35 35 35 36